Regional Weather Roundup
Issued by NWS Green Bay, WI

Home | Current Version | Previous Version | Graphics & Text | Print | Product List | Glossary Off
Versions: 1 2 3 4 5 6 7 8 9 10 11 12 13 14 15 16 17 18 19 20 21 22 23 24 25 26 27 28 29 30 31 32 33 34 35 36 37 38 39 40 41 42 43 44 45 46 47 48 49 50

000
ASUS43 KGRB 061111
RWRGRB

NORTH-CENTRAL AND NORTHEAST WISCONSIN REGIONAL WEATHER ROUNDUP
NATIONAL WEATHER SERVICE GREEN BAY WI
500 AM CST TUE DEC 06 2016

WIZ005-009-010>012-018-019-061200-
NORTH CENTRAL WISCONSIN

CITY           SKY/WX    TMP DP  RH WIND       PRES   REMARKS
IRONWOOD       CLOUDY    34  29  82 S12G18    29.66S
MANITOWISH WTR CLOUDY    32  30  92 S13G23    29.67F
ARBOR VITAE    CLOUDY    34  29  82 S13       29.69F
EAGLE RIVER    PTCLDY    31  26  82 S9        29.71S
LAND O LAKES   PTCLDY    32  27  81 S9G16     29.71S
RHINELANDER    MOCLDY    31  28  89 S9        29.72F
PHILLIPS       CLOUDY    31  30  94 S9        29.68F
ANTIGO         CLOUDY    29  28  99 S9        29.76S FOG
TOMAHAWK       CLOUDY    30  27  90 S3        29.72F
MERRILL        CLOUDY    31  29  91 S6        29.75F
$$

WIZ013-073-061200-
NORTHEAST WISCONSIN

CITY           SKY/WX    TMP DP  RH WIND       PRES   REMARKS
IRON MOUNTAIN  CLOUDY    35  32  88 SE9       29.77F FOG
MARINETTE      CLOUDY    39  36  87 S10       29.84F
OCONTO         CLOUDY    38  35  89 S7        29.83F
$$

WIZ017-030-035>037-045-061200-
CENTRAL WISCONSIN

CITY           SKY/WX    TMP DP  RH WIND       PRES   REMARKS
MEDFORD        CLOUDY    30  28  93 S12       29.71F FOG
WAUSAU         CLOUDY    30  28  92 S13       29.75F
MOSINEE        CLOUDY    30  30 100 S9        29.77F
MARSHFIELD     CLOUDY    31  28  89 S10       29.74F
WISC RAPIDS    CLOUDY    31  29  92 S8        29.79F
STEVENS POINT  CLOUDY    29  28  98 S8        29.79F FOG
WAUPACA        CLOUDY    33  31  89 SE5       29.81F FOG
SHAWANO        CLOUDY    37  34  89 S3        29.80F
CLINTONVILLE   CLOUDY    34  32  93 S6        29.81S FOG
WAUTOMA        CLOUDY    31  29  92 S8        29.82F FOG
$$

WIZ038-039-048-051-061200-
FOX VALLEY

CITY           SKY/WX    TMP DP  RH WIND       PRES   REMARKS
NWS GREEN BAY  CLOUDY    38  35  89 SE9       29.82F
APPLETON       NOT AVBL
OSHKOSH        CLOUDY    33  31  92 S8        29.81F FOG
FOND DU LAC    CLOUDY    33  29  85 S13       29.82F
$$

WIZ022-050-052-061200-
EAST CENTRAL WISCONSIN

CITY           SKY/WX    TMP DP  RH WIND       PRES   REMARKS
EPHRAIM        CLOUDY    38  35  88 S13G20    29.83S
WASHINGTON ISL PTSUNNY   39  34  83 S9G18     29.83F
STURGEON BAY   CLOUDY    38  35  89 S15       29.84S
MANITOWOC      CLOUDY    39  35  86 S12       29.85F
SHEBOYGAN      CLOUDY    37  34  89 S7        29.84F
$$

LMZ563-521-522-541>543-061200-
LAKESHORE

STATION/POSITION TIME  TEMP    WIND        PRES    VSBY  WAVE
                       AIR SEA DIR/SP/G                  HT/PER
                 (UTC) (F)     (DEG/KT/KT) (MB)    (MI)  (FT/S)
SHEBOYGAN LKSHOR 1100   40     170/ 17/ 19 1010.8F
KEWAUNEE LKSHORE 1048   40     170/ 19/ 22 1010.3F
ALGOMA MARINA    1051          190/ 21/ 26   N/A
NORTHPORT PIER   1100   40     150/ 15/ 23 1010.5
SISTER BAY LKSHO 1038   40     150/ 16/ 21   N/A
CHAMBERS ISLAND  1040   40     150/  7/ 13 1010.2F
MENOMINEE LKSHOR 1048   40     160/ 15/ 18 1009.5F
$$



USA.gov is the U.S. government's official web portal to all federal, state and local government web resources and services.